Location: La Brionne
(46.1728°N, 1.7849°E)
Time: 08:05:30
(UTC+00:00)

Resurs 01 Rocket - Pass Details

Date: 16 June 2021
Orbit: 635 x 643 km, 97.9° (Epoch: 02 August)

Event Time Altitude Azimuth Distance (km) Brightness Sun altitude
Exits shadow 21:03:40 - 190° (S) 2,665 4.4 -10.5°
Reaches altitude 10° 21:05:22 10° 197° (SSW) 2,017 3.9 -10.7°
Maximum altitude 21:09:23 34° 263° (W) 1,044 3.0 -11.1°
Drops below altitude 10° 21:13:26 10° 329° (NNW) 2,032 5.7 -11.5°
Sets 21:15:49 0° 339° (NNW) 2,946 6.7 -11.8°
